logo
Rechercher aéroport 
image banner adimage banner adimage banner ad
image banner ad

EHLH - L10-B (Oil Platform)

Situé à , Netherlands

ICAO - , IATA -

Données fournies par Airmate  

Information générale

Coordonnées: N53°27'24" E4°13'54"
Élévation : feet MSL.
 
Voir autres Aéroports à Noord-Holland

Données opérationnelles

Special qualification required
Heure actuelle UTC:
Heure actuelle locale:
Météo à : EHKV - K14-Fa-1C (Oil Platform) ( 45 km )
METAR: EHKV 152055Z AUTO 09018KT 9999 NSC 17/16 Q1008
Voir NOTAMs / SUP AIP / TFR affectant cet aéroport [VIEW]
Fréquences de communication: [VIEW]

Pistes:

Coordonnées de l'aéroport

Adresse: Netherlands

Vue satellite de EHLH